This is the latest recevied weather packets stored in our database for station/object OK1TBM-13. If no packets are shown the sender has not sent any weather packets the latest 10 day(s).
| Time | Temp. | Humidity | Pressure | Rain* | Wind** | Luminosity | Snow |
|---|---|---|---|---|---|---|---|
| 1788454501 | 21.11° C | 58% | 1016.6 hPa | 0 mm | - | 32 W/m² | - |
| 1788453601 | 21.67° C | 58% | 1016.6 hPa | 0 mm | - | 26 W/m² | - |
| 1788453302 | 21.67° C | 58% | 1016.6 hPa | 0 mm | - | 38 W/m² | - |
| 1788453002 | 21.67° C | 58% | 1016.6 hPa | 0 mm | - | 53 W/m² | - |
| 1788452402 | 21.67° C | 57% | 1016.6 hPa | 0 mm | - | 70 W/m² | - |
| 1788451502 | 21.67° C | 56% | 1016.6 hPa | 0 mm | - | 62 W/m² | - |
| 1788451201 | 21.67° C | 57% | 1016.9 hPa | 0 mm | - | 75 W/m² | - |
| 1788450901 | 22.22° C | 55% | 1016.9 hPa | 0 mm | - | 72 W/m² | - |
| 1788450601 | 22.22° C | 54% | 1016.9 hPa | 0 mm | - | 73 W/m² | - |
| 1788450001 | 22.22° C | 53% | 1017.3 hPa | 0 mm | - | 95 W/m² | - |
| 1788449701 | 22.22° C | 53% | 1017.3 hPa | 0 mm | - | 109 W/m² | - |
| 1788449401 | 22.22° C | 54% | 1017.3 hPa | 0 mm | - | 102 W/m² | - |
| 1788449101 | 22.22° C | 54% | 1017.3 hPa | 0 mm | - | 68 W/m² | - |
| 1788448801 | 22.22° C | 54% | 1017.3 hPa | 0 mm | - | 63 W/m² | - |
| 1788448505 | 22.22° C | 52% | 1017.3 hPa | 0 mm | - | 73 W/m² | - |
| 1788448201 | 22.78° C | 51% | 1016.9 hPa | 0 mm | - | 82 W/m² | - |
| 1788447900 | 23.33° C | 50% | 1016.9 hPa | 0 mm | - | 102 W/m² | - |
| 1788447600 | 23.89° C | 49% | 1017.3 hPa | 0 mm | - | 154 W/m² | - |
| 1788447301 | 22.78° C | 50% | 1017.3 hPa | 0 mm | - | 256 W/m² | - |
| 1788447001 | 23.33° C | 50% | 1017.3 hPa | 0 mm | - | 98 W/m² | - |
| 1788446407 | 24.44° C | 47% | 1017.3 hPa | 0 mm | - | 336 W/m² | - |
| 1788446102 | 23.89° C | 48% | 1017.3 hPa | 0 mm | - | 260 W/m² | - |
| 1788445802 | 23.89° C | 48% | 1017.3 hPa | 0 mm | - | 170 W/m² | - |
| 1788445501 | 25° C | 51% | 1017.3 hPa | 0 mm | - | 305 W/m² | - |
| 1788445201 | 24.44° C | 52% | 1017.3 hPa | 0 mm | - | 492 W/m² | - |
* Rain latest hour (hover to see other rain measurements)
** Current wind speed in m/s (hover to see current wind gust speed)